FENGYUN 2B AKM, 26460

Orbit data source: Space-Track

FENGYUN 2B AKM, 26460 is space debris in GEO originally from a launch on Sun, 25 Jun 2000 UTC launched from the Xichang Space Center, China (XSC). Debris objects in space refer to the collection of defunct objects orbiting the Earth. Examples of debris include non-operational satellites, rocket bodies, and fragments generated from explosions, collisions, or faulty payload assembly.

Not visible in the next 10 days
Identifier
26460, 2000-032C
Orbit
GEO
Country
Flag of CNCN / PRC
Related business
Manufacturer
China ARMT
Mission
Spacecraft
Bus & Motor
SHANXI AKM, Unknown motor
Mass
729 kg wet, ~50 kg dry
Launch date (UTC)
2000-06-25 (26 years ago)
Launch vehicle
Unknown
Launch site
Xichang Space Center, China (XSC)
Object type
Payload
Rocket body
Debris
Shape & HBR
Cyl + Cone, 0.8 m
Radar Cross Section
1.571 m², Large (>1 m²)

Expand to show TLE details & history
Last TLE update: 21 hours ago

TLE from 21 hours ago
0 FENGYUN 2B AKM
1 26460U 00032C   26253.67960822 -.00000366  00000-0  00000-0 0  9997
2 26460  14.4696   5.5608 0021994  45.4278 314.7793  1.00179093123043
Epoch: 2026-09-10T16:18Z
TLE epoch observation values (Epoch: 2026-09-10T16:18:38.150Z)
Latitude
-0°
Longitude
131.20712°
Altitude
35,746.864 km
Speed
3.079 km/s
True Right ascension
00h 22m 19s
True Declination
0° 00' 00"
Sunlit
Object was in daylight at epoch
Visualization orbit readout
Latitude
Unknown
Longitude
Unknown
Altitude
Unknown
Speed
Unknown
Apparent Right ascension
Unknown
Apparent Declination
Unknown
Sunlit
N/A
Visualization observer readout
Local Sidereal Time
05:42:04
Azimuth
Unknown
Elevation
Unknown
Doppler factor
Unknown
Orbital elements
Apogee altitude
35,906.368 km
Perigee altitude
35,720.775 km
Semi-major axis
42,191.709 km
Eccentricity
0.0022
Inclination
14.4696°
RAAN
5.5608°
Arg. of periapsis
45.4278°
True anomaly
314.60005°
Mean anomaly
314.7793°
Eccentric anomaly
314.68971°
Mean motion
0.25044 °/min
Orbital period
1,437.47 mins
BSTAR
0
Loading maneuver chart data...
Computing Atmospheric mass density...
Loading historical data...
Loading historical data...
Loading historical data...
Loading historical data...
Loading historical data...
Loading historical data...
Loading historical data...
Other satellites on launch #32 in the year 2000 (2000-06-25 UTC)

Documentation

Showing up to 5 results
|